Regional Weather Roundup
Issued by NWS

Home | Current Version | Previous Version | Graphics & Text | Print | Product List | Glossary On
Versions: 1 2 3 4 5 6 7 8 9 10 11 12 13 14 15 16 17 18 19 20 21 22 23 24 25 26 27 28 29 30 31 32 33 34 35 36 37 38 39 40 41 42 43 44 45 46 47 48 49 50
000
ASUS43 KDTX 200901
RWRMI
MICHIGAN HOURLY REGIONAL WEATHER ROUNDUP
NATIONAL WEATHER SERVICE DETROIT/PONTIAC MI
400 AM EST FRI JAN 20 2017

NOTE: "FAIR" INDICATES FEW OR NO CLOUDS BELOW 12,000 FEET WITH NO
SIGNIFICANT WEATHER AND/OR OBSTRUCTION TO VISIBILITY.

MIZ047>049-052>055-059>063-066>070-074>076-081>083-201000-
SOUTHEAST LOWER MICHIGAN

CITY           SKY/WX    TMP DP  RH WIND       PRES   REMARKS
ADRIAN         CLOUDY    32  32 100 E12       29.73F FOG     WCI  23
ALMA           CLOUDY    33  32  96 E8        29.75F FOG     WCI  26
ANN ARBOR      FOG       33  33 100 NE7       29.75F VSB 1/2 WCI  27
BAD AXE        FOG       31  31 100 SE5       29.82F VSB 1/2 WCI  26
CARO           FOG       31  31 100 E5        29.78F VSB 3/4 WCI  26
DETROIT CITY   CLOUDY    32  32 100 E10       29.79F FOG     WCI  24
DETROIT        FOG       33  32  96 E6        29.78F VSB 1/4 WCI  28
FLINT          CLOUDY    32  31  96 SE7       29.78S FOG     WCI  26
GROSSE ILE     FOG       32  32 100 NE7       29.76F VSB 1   WCI  26
HILLSDALE      MIX PCPN  32  32 100 E9        29.69F WCI  24
HOWELL         CLOUDY    33  32  97 E6        29.75F FOG     WCI  27

CITY           SKY/WX    TMP DP  RH WIND       PRES   REMARKS
JACKSON        MIX PCPN  34  33  96 E10       29.71F FOG     WCI  26
LAMBERTVILLE   CLOUDY    34  33  95 E8        29.73F FOG     WCI  27
LANSING        MIX PCPN  34  32  92 E9        29.75F FOG     WCI  27
LAPEER         FOG       32  32 100 E6        29.78F VSB 1   WCI  26
MASON          CLOUDY    34  33  99 E5        29.73F FOG     WCI  30
MONROE         CLOUDY    33  33 100 E8        29.75F FOG     WCI  26
MT. CLEMENS    CLOUDY    32  32 100 E7        29.78F FOG     WCI  26
PONTIAC        FOG       31  29  92 SE7       29.76F VSB 1/2 WCI  24
PORT HOPE        N/A     32  31  96 SE10      29.81F WCI  24
PORT HURON     FOG       32  32 100 E5        29.80F VSB 1   WCI  27
TRI CITIES     FOG       31  31 100 NE9       29.78F VSB 1/4 WCI  23
MIDLAND        FOG       32  31  96 NE6       29.78F VSB 1/2 WCI  26
TROY           FOG       32  31  98 E5        29.80F VSB 1   WCI  27
SAGINAW HB     CLOUDY    32  30  93 NE10      29.78F FOG     WCI  24
$$
MIZ043>046-050>051-056>058-064>065-071>073-077>080-201000-
SOUTHWEST LOWER MICHIGAN

CITY           SKY/WX    TMP DP  RH WIND       PRES   REMARKS
BATTLE CREEK   LGT RAIN  37  36  96 E6        29.70F FOG     WCI  32
BENTON HARBOR  LGT RAIN  39  36  89 NE5       29.66F FOG
BIG RAPIDS     CLOUDY    33  32  93 E3        29.72F FOG
COLDWATER      LGT RAIN  37  37 100 E8        29.68F WCI  30
FREMONT        MIX PCPN  34  33  96 CALM      29.73F
HOLLAND        LGT RAIN  37  34  89 E7        29.70F WCI  32
GRAND RAPIDS   LGT RAIN  35  32  88 E8        29.72F FOG     WCI  29
IONIA          LGT SNOW  33  32  99 E8        29.73F WCI  25
KALAMAZOO      RAIN      38  35  89 E6        29.68F FOG     WCI  33
LUDINGTON      LGT RAIN  35  34  95 SW5       29.74S WCI  31
MARSHALL       LGT RAIN  36  35  98 E7        29.70F WCI  30
MOUNT PLEASANT CLOUDY    32  32 100 NE7       29.75F FOG     WCI  26
MUSKEGON       LGT RAIN  37  35  92 E5        29.73F FOG     WCI  33
SOUTH HAVEN    LGT RAIN  37  37  97 E5        29.67F WCI  34
$$
MIZ016>042-201000-
NORTHERN LOWER MICHIGAN

CITY           SKY/WX    TMP DP  RH WIND       PRES   REMARKS
ALPENA         FOG       32  31  96 S6        29.83F VSB 1/2 WCI  26
BEAVER ISLAND  FOG       33  33 100 SE7       29.78F VSB 1/2 WCI  27
BELLAIRE       CLOUDY    29  29 100 CALM      29.78F FOG
CADILLAC       CLOUDY    32  32  99 E6        29.73F FOG     WCI  26
CHARLEVOIX     FOG       31  31 100 E6        29.81F VSB 1/2 WCI  25
FRANKFORT      CLOUDY    35  33  94 S3        29.74F FOG
GAYLORD        FOG       32  29  88 CALM      29.76F VSB 1/4
GRAYLING       FOG       32  32 100 E6        29.78F VSB 1/2 WCI  26
HARBOR SPRINGS FOG       32  32 100 E5        29.79F VSB 1/4 WCI  27
HOUGHTON LAKE  FOG       31  31 100 E5        29.78F VSB 1/2 WCI  26
MANISTEE       CLOUDY    35  33  92 E6        29.73F WCI  30
OSCODA         FOG       33  32  98 E3        29.82F VSB 1/4
PELLSTON       FOG       33  31  92 E6        29.80F VSB 1/4 WCI  28
ROGERS CITY    FOG       32  32  98 SE3       29.83F VSB 3/4
TRAVERSE CITY  CLOUDY    32  31  96 CALM      29.76F FOG
$$
MIZ007>008-015-201000-
EASTERN UPPER MICHIGAN

CITY           SKY/WX    TMP DP  RH WIND       PRES   REMARKS
KINROSS        MIX PCPN  32 N/A N/A SE7       29.81F VSB 1/2 WCI  26
MACKINAC ISLAN CLOUDY    33  33 100 SE5       29.80F FOG     WCI  28
NEWBERRY       FOG       31  31  97 SE8       29.79S VSB 3/4 WCI  24
S. S. MARIE    FOG       34  32  92 E6        29.81F VSB 1/2 WCI  29
MUNISING         N/A     32  31  96 S7        29.75F WCI  26
$$
MIZ004>006-011>014-085-201000-
CENTRAL UPPER MICHIGAN

CITY           SKY/WX    TMP DP  RH WIND       PRES   REMARKS
MANISTIQUE     CLOUDY    33  32  98 SE6       29.78F FOG     WCI  27
ESCANABA       FOG       32  31  96 CALM      29.77F VSB 1/4
SAWYER-GWINN   FOG       28  28  99 SW5       29.74F VSB 1/4 WCI  23
$$
MIZ001>003-009>011-084-201000-
WESTERN UPPER MICHIGAN

CITY           SKY/WX    TMP DP  RH WIND       PRES   REMARKS
IRON MOUNTAIN  FOG       30  28  92 CALM      29.73F VSB 1/4
HOUGHTON       CLOUDY    24  23  96 NE3       29.70S FOG
COPPER HARBOR    N/A     33  31  92 W6        29.71F WCI  28
IRONWOOD       CLOUDY    34  28  79 S8        29.70F WCI  27
$$

ABBREVIATIONS USED IN REMARKS
   TC - TEMPERATURE IN CELSIUS
  WCI - WIND CHILL INDEX
   HX - HEAT INDEX
  VSB - VISIBILITY




USA.gov is the U.S. government's official web portal to all federal, state and local government web resources and services.